Location: LC-39B
(28.6273°N, 80.6211°W)
Time: 07:48:32
(UTC+00:00)

ISS - Visible Passes

Search period start: 01 August 2014 00:00
Search period end: 11 August 2014 00:00
Orbit: 411 x 419 km, 51.6° (Epoch: 01 August)

Date Brightness Start Highest point End Pass type
(mag) Time Alt. Az. Time Alt. Az. Time Alt. Az.
01 Aug -1.6 10:11:31 10° NNW 10:14:42 39° NE 10:17:52 10° ESE visible
02 Aug -2.5 01:12:38 10° S 01:15:33 29° SE 01:17:03 20° E visible
02 Aug 0.0 02:49:59 10° W 02:50:14 11° W 02:50:14 11° W visible
02 Aug -0.5 09:23:08 10° NNW 09:25:47 21° NE 09:28:25 10° E visible
03 Aug -1.3 02:00:20 10° WSW 02:03:19 31° NW 02:06:19 10° NNE visible
03 Aug 0.1 08:35:15 10° N 08:36:46 12° NE 08:38:16 10° ENE visible
03 Aug -3.1 10:10:25 10° NW 10:13:40 49° SW 10:16:54 10° SSE visible
04 Aug -2.8 01:11:09 10° SW 01:14:25 64° NW 01:17:44 10° NE visible
04 Aug -3.1 09:21:30 10° NW 09:24:51 73° NE 09:28:11 10° SE visible
05 Aug 0.2 02:01:25 10° NW 02:02:33 11° NW 02:03:40 10° NNW visible
05 Aug -1.2 08:37:07 26° E 08:37:07 26° E 08:39:03 10° ESE visible
05 Aug -1.4 10:10:42 10° W 10:12:23 13° SW 10:14:05 10° SSW visible
06 Aug -0.3 01:11:02 10° W 01:13:29 19° NW 01:15:58 10° N visible
